Regional Weather Roundup
Issued by NWS Grand Forks, ND

Home | Current Version | Previous Version | Text Only | Print | Product List | Glossary Off
Versions: 1 2 3 4 5 6 7 8 9 10 11 12 13 14 15 16 17 18 19 20 21 22 23 24 25 26 27 28 29 30 31 32 33 34 35 36 37 38 39 40 41 42 43 44 45 46 47 48 49 50

000
ASUS43 KFGF 201610
RWRFGF
PRAIRIE TO PINES  WEATHER ROUNDUP
NATIONAL WEATHER SERVICE EASTERN NORTH DAKOTA/GRAND FORKS ND
1100 AM CDT MON OCT 20 2014

 **SATELLITE DATA USED TO AUGMENT SKY COVER AT AUTOMATED STATIONS**
 *****  WEATHER ACROSS EASTERN NORTH DAKOTA  *****

CITY           SKY/WX    TMP DP  RH WIND       PRES   REMARKS
GRAND FORKS    SUNNY     48  41  76 N5        30.09R
GRAND FRKS AFB SUNNY     48  44  85 NE5       30.09R
GRAND FRKS NWS   N/A     48 N/A N/A VRB5        N/A
DEVILS LAKE    SUNNY     50  39  66 SE7       30.06S
FARGO          SUNNY     51  41  68 N5        30.07S
WAHPETON ARPT  SUNNY     50  37  62 NW6       30.08S
$$

 ***** WEATHER ACROSS CENTRAL AND WESTERN NORTH DAKOTA  *****

CITY           SKY/WX    TMP DP  RH WIND       PRES   REMARKS
BISMARCK       SUNNY     50  40  68 SE3       30.07F
MINOT          SUNNY     59  40  49 SE7       30.00F
JAMESTOWN      SUNNY     51  39  63 CALM      30.07S
MINOT AFB      SUNNY     55  43  64 SE7       30.00S
GARRISON         N/A     54  41  61 S6        30.02F
WILLISTON      SUNNY     57  40  52 S6        29.95F
DICKINSON      SUNNY     59  41  51 S18       29.98F
HETTINGER      SUNNY     58  39  49 SE14      30.03F
$$

 *****  OTHER AIRPORT OBSERVATIONS IN OUR AREA  *****

CITY           SKY/WX    TMP DP  RH WIND       PRES   REMARKS
WALHALLA         N/A     41  41 100 S3        30.10R
GRAFTON AIRPOR FAIR      46  41  81 CALM      30.09S
VALLEY CITY AR FAIR      48  45  87 CALM      30.07S
CANDO          FAIR      50  43  76 SE8       30.06F
CAVALIER APRT  CLOUDY    45  41  87 N5        30.09S
GWINNER        SUNNY     54  39  58 CALM      30.09F
SHEYENNE NWR     N/A     52  41  67 CALM      29.95S
ROLLA          FAIR      50  41  71 S8        30.05F
 ***** THE ABOVE OBSERVATIONS ARE NON NWS ARE NOT QUALITY
       CONTROLLED AND MAY MIS-REPORT RAIN FOR SNOW...
$$

  *****  WEATHER ACROSS NORTHERN MINNESOTA  *****

CITY           SKY/WX    TMP DP  RH WIND       PRES   REMARKS
FLAG ISLAND    CLOUDY    45  36  70 N10       30.05R
WARROAD        CLOUDY    45  39  81 N7        30.07S
ROSEAU         CLOUDY    45  39  81 N7        30.07S
HALLOCK        MOSUNNY   43  41  93 NE3       30.09R
THF RVR FALLS  CLOUDY    41  39  93 N9        30.08S
BAUDETTE       CLOUDY    46  39  76 N8        30.05R
WASKISH        CLOUDY    43  43 100 CALM      30.05R
CROOKSTON      SUNNY     46  41  81 NE7       30.09R
STEPHEN NDAWN    N/A     41  41 100 E5          N/A
GREENBUSH NDAW   N/A     43  43 100 N6          N/A
$$
  *****  WEATHER ACROSS CENTRAL AND WEST MINNESOTA  *****

CITY           SKY/WX    TMP DP  RH WIND       PRES   REMARKS
FOSSTON        SUNNY     48  39  71 N8        30.07R
BEMIDJI        MOSUNNY   47  39  76 N9        30.04S
PARK RAPIDS    SUNNY     51  41  68 N13       30.03S
ELBOW LAKE     FAIR      50  41  71 NW5       30.06R
WADENA         SUNNY     52  43  71 N8        30.04R
DETROIT LAKES  SUNNY     50  43  76 NW8       30.06S
MOORHEAD       SUNNY     48  45  87 N5        30.08S
FERGUS FALLS   SUNNY     52  39  62 CALM      30.07S
MORRIS MN      SUNNY     54  43  66 NW6       30.05F
STAPLES        SUNNY     52  41  66 N10       30.03S
$$
  *****  WEATHER ELSEWHERE ACROSS MINNESOTA  *****

CITY           SKY/WX    TMP DP  RH WIND       PRES   REMARKS
DULUTH         CLOUDY    48  42  80 NW10      29.97S
INTRNTL FALLS  CLOUDY    45  36  70 N13       30.02R
ELY            CLOUDY    46  37  71 N8        29.97R
CLOQUET        CLOUDY    48  41  76 NW8       29.98R
WHEATON        SUNNY     52  41  66 W6        30.09S
BRAINERD       SUNNY     50  41  71 N13       30.03R
HIBBING        CLOUDY    48  37  65 N16       29.99R
ALEXANDRIA     SUNNY     55  43  63 N9        30.05S
SAINT CLOUD    SUNNY     58  43  57 NW9       30.02S
MINNEAPOLIS    SUNNY     57  42  57 NW12      30.00S
$$

  *****  WEATHER ACROSS SOUTH DAKOTA  *****

CITY           SKY/WX    TMP DP  RH WIND       PRES   REMARKS
SIOUX FALLS    MOSUNNY   61  44  53 N5        30.09F
BROOKINGS      NOT AVBL
WATERTOWN      SUNNY     55  42  61 W3        30.09S
HURON          SUNNY     56  38  50 W3        30.11S
SISSETON         N/A     56  41  57 N7        30.07S
ABERDEEN       SUNNY     55  39  54 VRB3      30.10S
MITCHELL         N/A     58  41  53 MISG      30.12S
PIERRE         SUNNY     55  40  56 SE6       30.09S
MOBRIDGE       SUNNY     54  45  71 SE6       30.06F
RAPID CITY     SUNNY     56  43  61 SE10      30.04F
$$

  *****  SOME WEATHER IN NEARBY STATES *****

CITY           SKY/WX    TMP DP  RH WIND       PRES   REMARKS
GLASGOW MT     SUNNY     53  39  59 SE16      29.86F
GREAT FALLS MT SUNNY     62  29  28 S17       29.86S
CHEYENNE WY    SUNNY     60  38  43 SW6       30.18S
SCOTTSBLUFF NE SUNNY     55  41  59 SE7       30.12S
OMAHA NE       SUNNY     59  45  59 N7        30.10F
DES MOINES IA  SUNNY     61  46  57 NW6       30.05S
DAVENPORT IA   SUNNY     59  43  55 N16       29.95R
CHICAGO IL     MOSUNNY   58  46  64 NW12      29.85R
EAU CLAIRE WI  MOSUNNY   57  41  55 N13       29.96R
LA CROSSE WI   SUNNY     59  45  59 NW12      29.94F
$$

  *****  SOME NATIONAL WEATHER *****

CITY           SKY/WX    TMP DP  RH WIND       PRES   REMARKS
LA GUARDIA NY  PTSUNNY   52  30  43 SW9       30.10F
RALEIGH NC     MOSUNNY   65  43  44 SW14      30.14F
ATLANTA GA     MOSUNNY   66  51  58 SW8       30.12F
NEW ORLEANS LA MOSUNNY   74  54  49 NE10      30.07S
OKLAHOMA CITY  MOSUNNY   73  60  63 SW12      30.07S
ALBUQUERQUE NM PTSUNNY   57  42  57 NW7       30.20F
SALT LAKE CITY MOSUNNY   62  40  44 SE10      30.06R
LOS ANGELES CA CLOUDY    68  61  78 E5        29.94R
BOISE ID       SUNNY     56  33  42 SE5       29.89S
SEATTLE WA     CLOUDY    57  55  93 S8        29.75R
$$

*** WEATHER ACROSS MANITOBA...SASKATCHEWAN AND ONTARIO ***
                ***ONTARIO***

CITY           SKY/WX    TMP DP  RH WIND       PRES   REMARKS
GERALDTON      DRIZZLE   37  37 100 N6        29.89  FOG
THUNDER BAY    PTSUNNY   48  41  76 N6        29.92R
SIOUX LOOKOUT  NOT AVBL
TORONTO        CLOUDY    50  45  81 SE7       29.84F
BIG TROUT LK   CLOUDY    32  30  93 N3        30.08R
PICKLE LAKE    DRIZZLE   34  32  93 N7        30.01R
DRYDEN         CLOUDY    43  36  75 N9        30.02R
KENORA         NOT AVBL
$$
                *** MANITOBA***

CITY           SKY/WX    TMP DP  RH WIND       PRES   REMARKS
BRANDON        FOG       43  43 100 E8        30.04F VSB 1
DAUPHIN        CLOUDY    43  43 100 E7        30.01F FOG
ISLAND LAKE    PTSUNNY   37  34  87 SE2       30.11R
PILOT MOUND    NOT AVBL
THE PAS        PTSUNNY   45  39  81 SE17G26   29.97S
THOMPSON       DRIZZLE   32  32 100 SE3       30.08R FOG
WINNIPEG       CLOUDY    43  39  87 E5        30.10R
LYNN LAKE      CLOUDY    34  34 100 S13G18    29.97F WCI  25
CHURCHILL      CLOUDY    36  34  93 N6        30.09S
GILLAM         CLOUDY    36  34  93 SW6       30.10R
$$
                ***SASKATCHEWAN***

CITY           SKY/WX    TMP DP  RH WIND       PRES   REMARKS
ESTEVAN        MOSUNNY   59  41  51 SE9       29.94S
KINDERSLEY     NOT AVBL
LLOYDMINSTER   MOSUNNY   48  39  71 S13       29.60S
PRINCE ALBERT  MOSUNNY   48  41  76 E6        29.75F
REGINA         NOT AVBL
YORKTON        SUNNY     52  39  62 SE15      29.91F
N. BATTLEFORD  SUNNY     54  41  62 SE8       29.69S
LA RONGE       NOT AVBL
SASKATOON      MOSUNNY   54  41  62 S9        29.75S
SWIFT CURRENT  SUNNY     59  39  47 S17       29.78S
$$
NOTE: THESE ARE AUTOMATED STATIONS WITH LIMITED QUALITY CONTROL
      "FAIR" INDICATES FEW OR NO CLOUDS BELOW 12,000 FEET WITH NO
      SIGNIFICANT WEATHER AND/OR OBSTRUCTIONS TO VISIBILITY.
      SKY/WX - SKY CONDITION AND SIGNIFICANT WEATHER.
      TMP - AIR TEMPERATURE.    DP   - DEWPOINT TEMPERATURE.
      RH  - RELATIVE HUMIDITY.  PRES - PRESSURE.
      HX  - HEAT INDEX.         WCI  - WIND CHILL INDEX.
$


USA.gov is the U.S. government's official web portal to all federal, state and local government web resources and services.